Regional Weather Roundup
Issued by NWS

Home | Current Version | Previous Version | Text Only | Print | Product List | Glossary Off
Versions: 1 2 3 4 5 6 7 8 9 10 11 12 13 14 15 16 17 18 19 20 21 22 23 24 25 26 27 28 29 30 31 32 33 34 35 36 37 38 39 40 41 42 43 44 45 46 47 48 49 50

000
ASUS45 KCYS 031910
RWRWY

WYOMING REGIONAL WEATHER ROUNDUP
NATIONAL WEATHER SERVICE CHEYENNE WY
100 PM MDT MON AUG 03 2015

NOTE:  "FAIR" INDICATES FEW OR NO CLOUDS BELOW 12,000 FEET
WITH NO SIGNIFICANT WEATHER AND/OR OBSTRUCTIONS TO VISIBILITY.

WYZ001-032000-
YELLOWSTONE NATIONAL PARK

CITY           SKY/WX    TMP DP  RH WIND       PRES   REMARKS
LK YELLOWSTONE   N/A     71  41  33 VRB5      30.24F
W YELLOWSTONE  NOT AVBL

$$
WYZ002>013-054>058-071-098>099-032000-
NORTHERN WYOMING

CITY           SKY/WX    TMP DP  RH WIND       PRES   REMARKS
JACKSON        SUNNY     70  46  43 CALM      30.15F
CODY           FAIR      75  52  43 NE6       30.05S
GREYBULL       FAIR      86  41  20 CALM      29.95F
WORLAND        FAIR      85  41  21 W5        29.98F
SHERIDAN       FAIR      88  52  29 E14G21    29.98F
BUFFALO        FAIR      83  50  31 S10       30.06F
GILLETTE       FAIR      83  55  38 SE15      30.04F
HULETT         FAIR      81  52  36 N5        30.05F
NEWCASTLE      FAIR      82  50  32 SE7       30.04F

$$
WYZ014>020-022>026-101>103-032000-
CENTRAL WYOMING

CITY           SKY/WX    TMP DP  RH WIND       PRES   REMARKS
BIG PINEY      LGT RAIN  64  51  62 NW5       30.22F
PINEDALE       FAIR      68  45  42 E5        30.21F
DUBOIS         NOT AVBL
LANDER         FAIR      77  47  34 S24G35    30.09R
RIVERTON       FAIR      82  45  27 S20       30.09S
CASPER         FAIR      84  49  29 N12G17    30.07F
DOUGLAS        FAIR      85  49  28 VRB6      30.06F

$$
WYZ021-027>030-104>119-032000-
SOUTHERN WYOMING

CITY           SKY/WX    TMP DP  RH WIND       PRES   REMARKS
EVANSTON       LGT RAIN  60  55  83 NW8       30.18F
KEMMERER       LGT RAIN  55  52  88 NE8       30.20S
FORT BRIDGER   TSTM      57  57 100 N7        30.20S VSB 1
ROCK SPRINGS   CLOUDY    66  53  63 S8        30.16F
DIXON          CLOUDY    74  46  37 S8        30.20F
RAWLINS        PTSUNNY   70  45  40 SW9       30.20F
SARATOGA       CLOUDY    73  45  35 NW10      30.20F
LARAMIE        FAIR      82  35  18 SE24G31   30.18F
CHEYENNE       FAIR      85  37  18 S12G32    30.13F
TORRINGTON     FAIR      84  56  38 SE7       30.01F
PINE BLUFFS    FAIR      86  39  19 S14G25    30.08F

$$


USA.gov is the U.S. government's official web portal to all federal, state and local government web resources and services.